RH
50 54 56 43 37 31 27 30 28 29 19 21 22 22 18 15 17 15 14 12 13 12 9 11 13 14 20 32 55 75 81 80 78 76 76 85 85 82 81 77 75 79 78 80
54 56 40 37 34 34 34 36 35 30 22 20 23 21 18 15 14 12 11 12 12 13 11 11 12 19 27 55 64 76 81 81 79 74 70 72 77 80 78 81 82 81 80 80
44 45 37 40 36 36 36 36 30 30 23 22 24 19 20 14 15 12 12 12 12 12 11 11 12 13 19 46 79 77 82 82 81 76 78 96 96 98 95 94 85 85 83 83
47 42 42 40 41 34 39 30 29 29 28 29 20 17 16 16 15 12 11 13 13 12 13 13 12 14 16 23 64 73 77 82 83 82 83 84 81 88 88 84 87 86 85 84
45 49 50 48 39 32 36 29 30 28 28 32 26 29 18 17 17 14 14 12 12 11 12 11 12 13 11 21 54 77 80 84 85 86 87 86 85 81 94 96 94 93 93 87
42 35 39 42 36 31 28 32 32 31 33 42 26 27 18 18 17 16 14 12 12 11 12 13 13 15 30 61 68 92 88 90 89 89 92 91 88 94 96 96 96 96 95 94
59 56 34 32 38 33 34 39 52 48 56 41 22 31 21 21 17 14 14 12 11 11 14 18 33 67 75 87 89 91 89 93 94 91 93 92 90 94 93 94 93 96 96 98
73 69 47 30 38 40 40 40 60 60 42 31 25 34 22 18 14 16 15 15 15 15 17 22 48 78 86 89 90 89 89 90 92 95 94 94 93 96 94 94 95 95 94 94
69 66 39 34 32 32 42 43 34 48 48 52 33 28 20 25 20 21 20 20 20 17 17 23 64 88 92 92 89 85 88 90 90 88 91 95 96 96 96 96 96 96 96 98
60 71 43 35 33 32 34 31 42 47 63 59 47 40 27 22 17 18 18 19 21 21 18 38 77 87 90 90 94 94 93 93 95 95 95 95 97 97 97 98 97 98 98 99
72 74 68 48 43 44 39 42 40 40 43 54 52 40 31 26 27 23 21 22 26 27 29 60 78 85 89 93 94 95 96 97 99 98 98 98 99 98 98 98 98 98 99 99
54 75 88 69 45 38 35 34 36 53 50 48 43 40 26 23 19 18 19 19 23 33 60 83 93 93 94 93 95 95 97 98 98 95 95 98 99 99 99 99 99 99 99 99
86 77 96 76 61 45 49 45 40 40 41 47 56 45 23 21 24 24 24 23 23 26 65 92 97 95 93 94 96 97 97 97 98 94 93 93 98 97 99 99 99 99 99 99
71 81 98 89 61 68 52 45 42 45 57 46 43 37 28 30 25 19 17 21 21 24 40 87 94 94 92 93 95 96 97 97 97 98 97 97 99 99 98 99 99 99 99 99
84 100 92 86 77 77 78 88 79 75 64 78 52 41 31 28 31 29 24 22 21 22 25 61 87 92 94 95 96 96 95 98 93 89 94 94 98 98 99 99 99 99 99 99
66 82 99 100 94 95 94 78 84 72 62 58 65 65 39 26 28 28 25 24 26 25 28 27 59 78 88 92 94 94 94 95 95 93 96 96 98 99 99 99 99 98 98 98
77 76 90 95 91 96 99 96 79 65 50 50 78 60 46 47 37 30 25 26 22 28 31 48 59 76 84 88 89 94 93 92 95 92 96 97 98 98 98 96 96 98 98 97
82 82 84 92 80 97 66 63 57 58 48 42 44 45 45 46 44 40 33 26 22 21 27 39 59 72 80 88 94 94 96 92 93 93 94 98 97 97 97 96 97 98 95 96
77 82 91 91 81 66 59 54 56 59 60 52 46 45 42 35 47 47 38 34 28 28 31 28 42 67 79 88 88 92 97 96 94 96 95 97 96 97 96 96 96 93 92 91
65 74 85 86 93 90 51 43 36 38 64 40 40 44 37 34 60 33 45 38 35 34 42 47 49 62 77 84 89 93 94 95 95 91 95 95 94 94 96 95 94 92 85 88
89 95 92 88 86 70 47 41 41 69 57 33 32 31 30 42 42 38 44 38 40 41 40 47 54 54 59 81 91 91 93 95 92 94 95 95 94 94 91 91 89 90 93 91
68 93 90 90 91 86 46 41 54 45 45 34 34 36 39 39 36 36 40 40 37 33 31 38 55 72 83 92 90 90 94 95 96 95 95 94 92 87 87 89 89 88 89 96
85 64 68 74 78 57 38 41 38 38 38 36 38 36 36 38 36 38 46 50 46 38 30 38 63 90 96 95 90 91 96 95 92 91 94 94 91 87 85 88 92 95 94 96
72 61 75 72 52 53 49 39 41 43 44 39 39 42 44 49 54 53 51 44 45 41 51 94 96 98 99 98 96 94 92 90 90 94 94 92 92 92 91 92 94 96 97 98
81 73 68 69 59 48 42 39 39 39 44 40 34 35 38 40 40 36 35 35 35 38 95 96 96 97 96 91 89 86 86 86 90 90 91 92 91 91 95 94 96 97 96 95
75 73 80 85 54 63 49 41 40 48 47 42 43 44 43 40 38 36 41 45 53 86 91 94 94 94 91 86 86 84 82 81 85 90 90 91 93 93 94 97 99 99 97 98
Wind_Speed
3 5 13 23 8 2 3 4 6 3 5 3 7 7 12 10 5 10 11 14 11 12 18 10 11 14 8 10 14 16 17 16 13 11 12 10 13 11 10 10 13 13 13 13
4 19 21 8 8 7 7 7 11 6 8 4 6 12 12 10 9 11 14 13 12 7 8 8 7 6 9 13 17 15 18 15 16 13 13 8 9 8 8 8 9 12 13 13
18 19 18 11 8 9 12 14 13 9 7 6 3 14 7 11 6 7 9 11 9 12 12 9 8 10 9 10 14 17 18 20 18 16 9 3 5 3 5 7 9 12 14 14
16 17 16 21 18 17 18 10 6 5 4 9 7 14 7 10 10 8 9 8 11 10 8 8 9 8 10 13 13 15 16 17 16 15 12 16 12 10 10 10 8 9 14 14
21 19 26 22 20 16 16 7 9 8 11 3 11 5 11 7 10 12 10 10 10 11 12 12 10 11 13 9 12 14 13 13 14 16 14 12 11 10 2 4 8 9 9 14
20 8 14 21 19 15 5 7 5 5 5 7 20 11 19 11 11 6 6 9 10 11 10 10 10 9 9 7 10 11 14 14 14 15 14 16 17 9 7 6 8 7 7 9
21 20 21 7 20 17 9 8 5 7 4 17 15 8 24 5 8 14 12 11 11 11 7 7 8 7 8 9 10 11 14 13 14 16 15 15 14 11 12 10 9 8 7 5
17 17 19 16 16 17 22 17 8 11 12 19 6 12 21 14 20 10 9 9 9 10 8 9 10 8 8 9 11 12 14 12 11 13 13 11 10 7 8 8 7 8 8 9
11 17 3 17 19 18 13 22 25 4 3 0 6 6 11 3 7 7 9 8 9 12 13 13 9 10 8 9 12 14 12 8 9 9 7 7 8 8 8 7 6 6 6 5
9 6 18 12 19 21 21 9 16 12 12 12 6 6 10 11 18 13 12 11 10 13 16 9 10 12 11 8 5 8 7 8 7 7 6 5 7 6 6 5 7 6 4 5
6 8 5 2 15 21 18 20 14 5 15 15 17 15 7 10 8 11 13 9 8 12 12 9 10 11 10 7 8 8 8 9 7 6 6 6 5 6 6 5 5 5 4 5
22 5 13 21 14 5 10 20 23 14 14 11 16 19 4 12 14 15 13 9 8 6 8 3 5 9 11 10 8 9 8 10 11 11 10 8 7 6 6 5 5 5 5 5
4 8 11 15 8 19 14 13 9 8 12 19 13 17 14 19 11 8 6 9 7 5 1 4 5 8 10 10 9 8 8 8 9 11 10 10 7 6 6 6 6 6 6 6
8 6 12 14 18 2 17 25 18 15 11 15 19 18 20 8 18 20 21 12 10 8 6 6 2 5 8 9 10 10 9 8 9 9 10 9 8 7 7 6 7 7 6 7
10 6 7 19 24 10 12 9 6 8 6 8 10 14 19 13 10 11 12 10 9 9 7 9 11 10 8 8 9 8 9 11 12 11 9 9 7 8 7 6 6 6 6 5
6 11 2 9 15 17 16 13 6 9 10 9 13 18 21 14 7 9 13 9 10 10 9 10 11 13 14 15 14 13 13 15 14 14 12 9 9 10 8 7 6 7 6 7
7 7 5 10 7 9 7 11 15 10 11 9 11 14 22 20 12 8 11 12 18 11 10 10 12 15 16 17 16 17 16 14 15 13 11 11 10 11 11 10 9 8 7 8
11 10 7 10 9 15 8 13 15 17 18 18 18 19 21 21 16 11 14 14 16 17 10 10 11 13 14 11 9 7 7 12 13 13 13 11 11 10 11 12 11 8 8 9
18 11 6 10 12 13 8 5 8 9 18 16 15 17 18 18 9 19 15 10 16 15 15 15 12 14 14 15 16 15 12 13 13 12 12 12 12 12 12 13 12 10 10 9
18 17 11 7 13 14 15 14 15 16 21 7 11 17 21 17 11 19 4 9 13 13 10 12 10 4 9 15 14 16 16 16 16 17 13 12 12 13 12 12 12 6 8 10
4 5 17 15 15 11 16 5 6 13 12 17 17 21 22 17 15 17 5 14 11 11 12 9 8 11 15 11 15 17 15 19 17 13 13 13 12 12 12 10 11 11 11 10
11 7 6 6 9 18 13 15 22 15 13 17 14 13 13 13 18 17 10 17 20 21 18 15 8 10 8 11 15 16 18 10 10 13 13 14 13 11 10 15 11 11 12 10
11 14 10 8 7 6 17 23 14 12 15 23 13 16 15 16 20 19 17 15 16 19 19 14 10 6 6 9 13 13 9 14 17 16 14 14 13 11 12 14 13 10 8 8
6 8 8 4 19 15 14 16 12 10 14 16 12 11 11 15 19 20 15 15 15 18 16 6 8 8 5 6 8 11 14 14 15 16 15 13 14 13 11 8 8 8 6 6
5 3 7 10 17 20 19 17 18 14 8 12 19 16 17 19 25 26 20 20 20 21 8 9 10 10 9 10 13 14 15 18 16 16 15 13 11 11 11 8 6 6 5 6
5 9 8 12 16 5 20 20 19 9 14 19 20 20 18 19 24 28 22 17 18 11 10 10 12 14 13 14 14 14 15 16 18 15 12 12 13 9 8 8 7 10 8 7
Wind_Direction
202 182 209 213 208 183 153 209 257 250 252 202 240 243 271 268 227 257 257 256 244 243 258 223 210 218 196 184 197 190 184 189 176 181 182 187 199 195 202 203 201 197 201 201
245 227 221 216 195 204 232 242 253 287 266 188 280 263 258 263 256 240 255 254 240 251 264 242 230 201 188 188 189 184 194 181 189 189 196 195 189 206 205 204 205 201 201 202
211 229 220 200 194 200 222 225 240 243 326 279 328 285 245 269 226 260 258 241 237 228 240 248 233 221 199 192 190 188 189 187 192 194 176 117 111 94 184 203 204 202 198 202
224 233 240 215 215 207 229 197 215 201 200 247 148 270 217 234 256 231 261 237 237 238 244 247 250 237 211 217 195 195 191 189 186 184 182 187 191 188 208 204 202 198 201 204
223 205 216 229 222 195 241 175 189 196 241 21 262 295 255 172 255 252 241 247 239 236 230 238 236 235 244 199 191 191 185 185 181 179 188 188 200 213 165 167 183 197 200 208
244 229 214 225 233 227 205 240 223 210 200 229 240 200 263 224 213 253 227 242 247 252 248 238 244 244 241 195 173 176 174 180 177 177 182 193 203 194 179 182 190 197 199 206
243 240 242 203 225 227 210 197 227 228 202 233 229 197 244 268 228 209 214 219 242 256 264 260 243 223 215 191 173 171 173 177 178 180 187 197 202 194 195 188 194 182 194 200
216 236 220 215 215 209 216 198 181 206 212 237 153 213 237 218 240 242 223 227 244 262 255 245 235 221 204 187 171 165 170 169 176 179 191 194 196 194 200 195 193 197 200 204
203 233 238 208 223 199 231 221 219 256 220 124 212 254 285 238 225 234 252 250 257 262 256 231 214 200 189 190 179 165 154 157 173 176 172 186 191 194 198 191 191 199 189 180
258 270 222 222 216 223 227 215 219 223 227 234 250 245 233 222 240 268 264 252 256 281 272 221 194 195 189 179 168 129 141 155 156 154 164 176 181 178 170 163 185 182 167 156
272 250 276 239 210 220 219 228 243 237 216 227 241 246 203 227 226 228 247 245 256 277 268 227 200 189 174 141 162 150 150 149 151 152 158 159 159 166 161 173 176 176 147 161
221 252 238 246 255 242 225 227 225 226 230 228 232 246 281 216 238 247 247 267 286 277 281 226 173 160 157 160 166 165 161 160 169 175 174 169 160 157 152 160 163 154 169 168
340 226 245 253 281 260 244 250 247 239 239 236 233 246 238 264 271 273 253 283 276 312 109 134 145 170 170 171 172 169 174 169 170 171 171 176 155 177 168 157 160 168 167 173
111 223 261 256 254 202 237 240 235 234 237 237 236 253 252 261 242 250 265 261 250 262 216 167 220 198 189 193 183 183 180 176 177 160 162 169 159 164 182 163 168 169 167 163
155 237 246 264 256 275 268 271 276 270 255 260 270 254 257 243 239 242 250 265 267 261 231 201 189 206 209 212 193 187 186 189 175 176 171 176 157 156 151 149 147 135 136 128
229 242 248 260 237 245 246 260 272 262 262 270 265 279 282 275 263 252 251 257 252 245 234 226 218 215 201 201 207 193 191 193 177 179 176 166 169 149 145 138 131 121 115 112
261 282 252 258 223 220 242 218 236 250 272 256 263 269 276 283 298 280 274 248 251 243 235 201 203 207 215 208 196 205 194 180 180 179 170 172 166 156 148 138 131 127 123 117
251 235 233 264 249 250 241 179 193 217 222 234 238 256 263 276 276 274 280 282 279 272 248 223 203 205 209 194 186 166 175 188 189 187 179 166 159 156 144 137 132 123 123 117
205 227 252 246 244 269 260 190 181 201 242 229 246 252 264 272 297 263 262 268 267 267 267 254 221 203 196 189 189 177 174 187 186 187 186 169 158 152 150 140 139 136 128 121
200 201 212 231 255 256 261 217 223 232 258 196 223 253 265 276 262 275 281 236 257 262 241 248 246 229 185 202 177 176 186 186 193 192 181 162 154 151 150 139 131 120 128 129
171 201 220 228 240 247 241 169 161 196 237 226 225 237 250 252 244 267 308 286 276 246 255 232 225 214 210 188 177 188 185 196 191 165 154 148 145 137 133 120 123 120 120 117
219 186 206 228 245 264 238 230 209 217 232 246 228 238 245 257 272 278 269 266 272 266 255 248 214 222 197 178 182 187 191 159 141 138 132 126 128 132 131 125 122 122 124 118
239 206 227 195 229 262 258 261 248 211 219 250 232 243 247 254 267 270 269 262 260 264 260 249 217 182 174 178 183 182 162 144 141 133 135 128 128 126 130 132 129 122 122 123
232 227 232 246 251 241 245 255 270 218 215 236 246 229 233 253 262 267 264 267 268 263 250 203 161 171 159 143 118 132 136 133 130 126 127 128 125 119 114 109 111 115 114 108
230 142 244 255 261 251 261 259 257 254 253 268 270 259 255 260 267 268 271 277 270 261 215 180 167 155 141 126 123 136 139 133 131 127 128 124 120 113 112 105 108 108 92 120
179 220 213 242 258 238 258 258 263 242 230 238 248 259 256 256 263 269 273 272 273 213 167 160 145 136 138 129 133 135 133 131 128 126 127 132 124 121 120 118 106 68 119 142